Regional Weather Roundup
Issued by NWS New Orleans/Baton Rouge, LA

Home | Current Version | Previous Version | Text Only | Print | Product List | Glossary On
Versions: 1 2 3 4 5 6 7 8 9 10 11 12 13 14 15 16 17 18 19 20 21 22 23 24 25 26 27 28 29 30 31 32 33 34 35 36 37 38 39 40 41 42 43 44 45 46 47 48 49 50
000
ASUS44 KLIX 280110
RWRLIX
NEW ORLEANS REGIONAL WEATHER ROUNDUP
NATIONAL WEATHER SERVICE NEW ORLEANS LA
700 PM CST TUE JAN 27 2015

NOTE: "FAIR" INDICATES FEW OR NO CLOUDS BELOW 12,000 FEET WITH NO
      SIGNIFICANT WEATHER AND/OR OBSTRUCTIONS TO VISIBILITY.
      SKY/WX - SKY CONDITION AND SIGNIFICANT WEATHER.
      TMP - AIR TEMPERATURE.     DP    - DEWPOINT TEMPERATURE.
      RH  - RELATIVE HUMIDITY.   PRES  - PRESSURE.
      HI  - HEAT INDEX.          WCI   - WIND CHILL INDEX.

*  THESE STATIONS ARE NOT NWS OR FAA STATIONS AND ARE NOT UNDER
   NWS QUALITY CONTROL.

LAZ038-040-048-061>063-065>067-069-280200-
SOUTHEAST LOUISIANA

CITY           SKY/WX    TMP DP  RH WIND       PRES   REMARKS
N.O. AUDUBON     N/A     68  42  38 MISG        N/A
N.O. INTL ARPT CLEAR     64  40  41 N5        30.11R
N.O. LAKEFRONT CLEAR     60  47  61 NW8       30.12R
N.O. DOWNTOWN*   N/A    N/A N/A N/A NW3       30.12R
SLIDELL        CLEAR     53  45  74 CALM      30.11R
BATON ROUGE    PTCLDY    60  34  37 CALM      30.12R
BOOTHVILLE     CLEAR     58  54  86 SW6       30.12R
BELLE CHASSE   CLEAR     53  40  61 CALM      30.11R
BOGALUSA*        N/A     53  41  64 CALM      30.12R
GALLIANO*      CLEAR     56  51  82 MISG      30.13R
NEW ROADS*       N/A     60  38  44 NW6       30.13S
GONZALES*        N/A     59  42  52 CALM      30.12R
HAMMOND*       CLEAR     55  41  58 CALM      30.13R
HOUMA*         CLEAR     55  46  71 CALM      30.12R
PORT FOURCHON* CLEAR     61  55  82 W5        30.16R

$$

MSZ070-080>082-280200-
SOUTHERN MISSISSIPPI

CITY           SKY/WX    TMP DP  RH WIND       PRES   REMARKS
MCCOMB         CLEAR     56  36  47 N6        30.13R
GULFPORT       PTCLDY    56  41  57 CALM      30.09R
BILOXI         CLEAR     58  40  51 CALM      30.09R
PASCAGOULA     CLEAR     50  44  80 CALM      30.09R
STENNIS ARPT*  CLEAR     48  41  76 CALM      30.11R

$$

COASTAL OBSERVATIONS
LAKE AND NEARSHORE STATIONS

STATION/POSITION TIME  TEMP    WIND        PRES    WAVE
                       AIR SEA DIR/SP/G            HT/PER
                 (UTC) (F)     (DEG/KT/KT) (MB)    (FT/S)
PASCAGOULA       0100   57     260/  6/  7 1018.5
WAVELAND YACHT   0100   65     310/  4/  4 1018.4
GRAND ISLE       0100   61 63  240/  4/  6 1020.5
SOUTHWEST PASS   0100   58 47  260/  7/  8 1020.3
NEW CANAL        0100   63 54  290/  5/  6 1020.0
SHELL BEACH      0100   67 56  280/  8/  9 1019.4

OFFSHORE STATIONS

STATION/POSITION TIME  TEMP    WIND        PRES    WAVE
                       AIR SEA DIR/SP/G            HT/PER
                 (UTC) (F)     (DEG/KT/KT) (MB)    (FT/S)
64 S DAUPHIN ISL 0034   64 66  280/ 12/ 14 1019.5    3/ 7

$$



USA.gov is the U.S. government's official web portal to all federal, state and local government web resources and services.